DW4993 Weather Reports


Display with metric or nautical units.
time (UTC)temp
F
wind
direction
speed
MPH
gust
MPH
rain 1hr
in
rain 24hr
in
rain mn
in
humidity
%
barometer
mb
20260504050305 53 54 6.0 13.0 0.00 0.00 0.00 44 1011.4
20260504045805 53 43 3.0 15.0 0.00 0.00 0.00 44 1011.3
20260504045305 53 41 8.0 16.0 0.00 0.00 0.00 44 1011.1
20260504044805 53 77 5.0 16.0 0.00 0.00 0.00 45 1011.2
20260504044305 53 41 7.0 13.0 0.00 0.00 0.00 45 1011.1
20260504043306 53 45 6.0 12.0 0.00 0.00 0.00 43 1011.0
20260504042805 54 47 6.0 13.0 0.00 0.00 0.00 43 1010.9
20260504042305 54 37 10.0 17.0 0.00 0.00 0.00 42 1010.9
20260504041805 54 32 7.0 13.0 0.00 0.00 0.00 42 1010.8
20260504041306 54 31 3.0 10.0 0.00 0.00 0.00 41 1010.6
20260504040805 54 56 7.0 15.0 0.00 0.00 0.00 41 1010.5
20260504035805 55 47 6.0 14.0 0.00 0.00 0.00 39 1010.1
20260504035306 55 65 5.0 10.0 0.00 0.00 0.00 38 1010.0
20260504034805 55 35 6.0 16.0 0.00 0.00 0.00 37 1009.8
20260504034305 55 50 7.0 15.0 0.00 0.00 0.00 37 1009.7
20260504033305 55 60 6.0 14.0 0.00 0.00 0.00 37 1009.5
20260504032804 56 51 7.0 16.0 0.00 0.00 0.00 36 1009.3
20260504032305 56 58 7.0 15.0 0.00 0.00 0.00 36 1009.1
20260504031806 56 39 7.0 16.0 0.00 0.00 0.00 36 1009.0
20260504031305 56 43 6.0 16.0 0.00 0.00 0.00 36 1008.8
20260504030805 57 52 6.0 13.0 0.00 0.00 0.00 36 1008.8
20260504030305 57 60 5.0 13.0 0.00 0.00 0.00 36 1008.6
20260504025806 57 47 5.0 13.0 0.00 0.00 0.00 36 1008.5
20260504024805 57 53 6.0 12.0 0.00 0.00 0.00 35 1008.3
20260504024305 58 60 6.0 12.0 0.00 0.00 0.00 35 1008.2
20260504023805 58 66 3.0 12.0 0.00 0.00 0.00 35 1008.0
20260504023305 58 60 3.0 13.0 0.00 0.00 0.00 35 1008.0
20260504022804 58 57 5.0 12.0 0.00 0.00 0.00 34 1007.9
20260504022305 58 50 4.0 10.0 0.00 0.00 0.00 34 1007.8
20260504020805 59 71 6.0 12.0 0.00 0.00 0.00 34 1007.4
20260504020305 59 42 5.0 13.0 0.00 0.00 0.00 34 1007.3
20260504015806 60 55 6.0 13.0 0.00 0.00 0.00 33 1007.1
20260504015305 60 55 5.0 12.0 0.00 0.00 0.00 33 1007.1
20260504014805 60 70 6.0 13.0 0.00 0.00 0.00 32 1007.0
20260504014306 61 57 5.0 14.0 0.00 0.00 0.00 33 1007.0
20260504013305 62 66 7.0 12.0 0.00 0.00 0.00 31 1006.6
20260504012805 63 53 9.0 20.0 0.00 0.00 0.00 31 1006.5
20260504012306 63 64 6.0 15.0 0.00 0.00 0.00 31 1006.3
20260504011805 64 82 6.0 15.0 0.00 0.00 0.00 31 1006.2
20260504011305 64 46 6.0 14.0 0.00 0.00 0.00 31 1006.1
20260504010805 64 57 6.0 14.0 0.00 0.00 0.00 31 1005.9
20260504010306 64 39 7.0 20.0 0.00 0.00 0.00 31 1005.9
20260504005805 65 53 7.0 17.0 0.00 0.00 0.00 31 1005.8
20260504005306 65 38 8.0 12.0 0.00 0.00 0.00 31 1005.8
20260504004805 65 37 6.0 17.0 0.00 0.00 0.00 31 1005.7
20260504004306 65 54 7.0 18.0 0.00 0.00 0.00 30 1005.5
20260504003804 66 45 5.0 13.0 0.00 0.00 0.00 31 1005.5
20260504002807 66 48 6.0 18.0 0.00 0.00 0.00 30 1005.5
20260504002305 66 56 7.0 12.0 0.00 0.00 0.00 30 1005.4
20260504001305 67 38 6.0 14.0 0.00 0.00 0.00 30 1005.3
20260504000805 67 47 6.0 15.0 0.00 0.00 0.00 30 1005.2
20260504000306 67 46 6.0 10.0 0.00 0.00 0.00 30 1005.3
20260503235805 67 48 5.0 12.0 0.00 0.00 0.00 30 1005.2
20260503235305 67 32 7.0 14.0 0.00 0.00 0.00 29 1005.2
20260503234805 67 44 6.0 14.0 0.00 0.00 0.00 30 1005.3
20260503234306 67 43 7.0 20.0 0.00 0.00 0.00 30 1005.2
20260503233805 67 56 6.0 15.0 0.00 0.00 0.00 29 1005.2
20260503233305 67 37 9.0 14.0 0.00 0.00 0.00 29 1005.1
20260503232804 67 42 6.0 13.0 0.00 0.00 0.00 29 1005.0
20260503232306 68 37 10.0 16.0 0.00 0.00 0.00 29 1005.1
20260503231805 68 27 7.0 13.0 0.00 0.00 0.00 29 1005.1
20260503231305 69 57 7.0 16.0 0.00 0.00 0.00 28 1005.0
20260503230305 69 46 7.0 16.0 0.00 0.00 0.00 28 1005.0
20260503225805 68 44 7.0 17.0 0.00 0.00 0.00 28 1005.0
20260503225305 68 44 7.0 17.0 0.00 0.00 0.00 29 1005.1
20260503224806 69 38 8.0 17.0 0.00 0.00 0.00 28 1005.1
20260503224305 69 59 7.0 17.0 0.00 0.00 0.00 27 1005.0
20260503223805 70 35 6.0 16.0 0.00 0.00 0.00 27 1004.9
20260503223304 71 60 10.0 18.0 0.00 0.00 0.00 26 1004.9
20260503222806 71 60 8.0 21.0 0.00 0.00 0.00 26 1004.9
20260503222305 72 69 7.0 21.0 0.00 0.00 0.00 25 1004.8
20260503221805 72 50 6.0 16.0 0.00 0.00 0.00 25 1004.8
20260503221305 73 3 4.0 12.0 0.00 0.00 0.00 25 1004.7
20260503220806 73 37 4.0 12.0 0.00 0.00 0.00 25 1004.8
20260503220304 73 31 6.0 12.0 0.00 0.00 0.00 26 1004.8
20260503215805 73 64 5.0 12.0 0.00 0.00 0.00 24 1004.9
20260503215306 73 32 6.0 12.0 0.00 0.00 0.00 25 1004.9
20260503214805 72 28 3.0 9.0 0.00 0.00 0.00 26 1005.0
20260503214305 72 42 5.0 10.0 0.00 0.00 0.00 25 1005.0
20260503213805 72 75 3.0 9.0 0.00 0.00 0.00 24 1005.0
20260503213305 73 15 5.0 9.0 0.00 0.00 0.00 24 1005.2
20260503212805 72 36 6.0 12.0 0.00 0.00 0.00 25 1005.2
20260503211804 72 77 2.0 9.0 0.00 0.00 0.00 24 1005.2
20260503211305 72 23 4.0 14.0 0.00 0.00 0.00 24 1005.3
20260503210805 72 35 4.0 9.0 0.00 0.00 0.00 25 1005.3
20260503205805 72 60 5.0 12.0 0.00 0.00 0.00 25 1005.4
20260503205305 72 41 3.0 10.0 0.00 0.00 0.00 24 1005.5
20260503204805 71 44 3.0 10.0 0.00 0.00 0.00 26 1005.6
20260503204304 71 61 5.0 12.0 0.00 0.00 0.00 25 1005.5
20260503203806 71 49 5.0 12.0 0.00 0.00 0.00 25 1005.6
20260503203305 71 50 5.0 10.0 0.00 0.00 0.00 25 1005.7
20260503202305 71 55 6.0 12.0 0.00 0.00 0.00 26 1005.8
20260503201806 71 22 3.0 15.0 0.00 0.00 0.00 26 1005.8
20260503201305 71 56 5.0 9.0 0.00 0.00 0.00 25 1005.9
20260503200805 71 215 3.0 9.0 0.00 0.00 0.00 24 1005.9
20260503200305 70 59 3.0 9.0 0.00 0.00 0.00 27 1005.9
20260503195806 70 28 4.0 10.0 0.00 0.00 0.00 26 1006.0
20260503195305 71 47 3.0 12.0 0.00 0.00 0.00 26 1006.1
20260503194805 71 27 5.0 12.0 0.00 0.00 0.00 26 1006.2
20260503194305 71 41 5.0 12.0 0.00 0.00 0.00 25 1006.2
20260503193305 71 36 4.0 13.0 0.00 0.00 0.00 25 1006.2
20260503192805 71 28 2.0 9.0 0.00 0.00 0.00 24 1006.3
20260503191806 70 282 4.0 8.0 0.00 0.00 0.00 25 1006.5
20260503191305 70 37 3.0 9.0 0.00 0.00 0.00 25 1006.6
20260503190805 70 358 5.0 10.0 0.00 0.00 0.00 26 1006.6
20260503190305 70 26 4.0 9.0 0.00 0.00 0.00 26 1006.7
20260503185806 69 17 6.0 12.0 0.00 0.00 0.00 26 1006.9
20260503185305 69 1 5.0 9.0 0.00 0.00 0.00 26 1006.9
20260503184805 69 1 6.0 12.0 0.00 0.00 0.00 26 1007.1
20260503184305 69 27 4.0 9.0 0.00 0.00 0.00 27 1007.1
20260503183806 68 23 3.0 12.0 0.00 0.00 0.00 28 1007.2
20260503183305 68 44 3.0 12.0 0.00 0.00 0.00 28 1007.2
20260503182805 68 36 6.0 12.0 0.00 0.00 0.00 28 1007.3
20260503182305 68 30 5.0 9.0 0.00 0.00 0.00 28 1007.3
20260503181805 68 13 5.0 10.0 0.00 0.00 0.00 27 1007.5
20260503181306 68 44 4.0 12.0 0.00 0.00 0.00 27 1007.6
20260503180805 68 39 6.0 13.0 0.00 0.00 0.00 27 1007.6
20260503175806 68 52 5.0 9.0 0.00 0.00 0.00 26 1007.7
20260503175305 68 55 5.0 10.0 0.00 0.00 0.00 27 1007.8
20260503174805 68 21 5.0 10.0 0.00 0.00 0.00 26 1007.9
20260503174305 68 46 6.0 13.0 0.00 0.00 0.00 26 1007.9
20260503173806 68 21 6.0 12.0 0.00 0.00 0.00 27 1008.0
20260503173305 68 15 5.0 10.0 0.00 0.00 0.00 27 1008.1
20260503172305 68 0 6.0 12.0 0.00 0.00 0.00 28 1008.2
20260503171806 68 3 2.0 10.0 0.00 0.00 0.00 27 1008.3
20260503171305 68 16 5.0 9.0 0.00 0.00 0.00 27 1008.3
20260503170805 68 29 3.0 10.0 0.00 0.00 0.00 28 1008.3
20260503170305 67 18 5.0 14.0 0.00 0.00 0.00 28 1008.4
20260503150306 56 335 2.0 3.0 0.00 0.00 0.00 40 1009.3
20260503140305 50 330 0.0 0.0 0.00 0.00 0.00 45 1009.6
20260503131305 43 330 0.0 0.0 0.00 0.00 0.00 53 1009.7
20260503130805 43 330 0.0 0.0 0.00 0.00 0.00 55 1009.7
20260503110804 44 330 0.0 0.0 0.00 0.00 0.00 50 1009.8
20260503110305 44 330 0.0 0.0 0.00 0.00 0.00 49 1009.9
20260503090305 47 329 1.0 3.0 0.00 0.00 0.00 44 1009.8
20260503080805 49 268 0.0 1.0 0.00 0.00 0.00 40 1009.8
20260503080305 49 268 1.0 2.0 0.00 0.00 0.00 39 1009.8
20260503072805 51 262 0.0 2.0 0.00 0.00 0.00 36 1009.9
20260503071805 51 256 0.0 1.0 0.00 0.00 0.00 36 1009.8
20260503071305 51 256 0.0 1.0 0.00 0.00 0.00 36 1009.7
20260503070805 52 256 0.0 1.0 0.00 0.00 0.00 36 1009.8
20260503070305 52 256 0.0 2.0 0.00 0.00 0.00 36 1009.8
20260503060305 53 220 0.0 0.0 0.00 0.00 0.00 41 1009.6
20260503054806 53 220 0.0 2.0 0.00 0.00 0.00 44 1009.5
20260503054305 53 218 1.0 2.0 0.00 0.00 0.00 44 1009.6
20260503053805 52 218 1.0 2.0 0.00 0.00 0.00 47 1009.5
20260503053305 53 205 0.0 2.0 0.00 0.00 0.00 54 1009.6
20260503052806 53 202 0.0 0.0 0.00 0.00 0.00 55 1009.6
20260503052305 54 202 0.0 0.0 0.00 0.00 0.00 54 1009.6
20260503051804 54 202 0.0 0.0 0.00 0.00 0.00 54 1009.6